Time,TemperatureF,DewpointF,PressureIn,WindDirection,WindDirectionDegrees,WindSpeedMPH,WindSpeedGustMPH,Humidity,HourlyPrecipIn,Conditions,Clouds,dailyrainin,SoftwareType,DateUTC
2013-08-08 00:01:00,71.0,67.0,-100.00,SW,219,4.0,8.0,87,0.00,,,0.39,,2013-08-08 04:01:00,
2013-08-08 00:12:00,71.0,67.0,-100.00,WSW,241,3.0,6.0,89,0.00,,,0.39,,2013-08-08 04:12:00,
2013-08-08 00:43:00,71.0,67.0,-100.00,SW,234,4.0,8.0,86,0.00,,,0.39,,2013-08-08 04:43:00,
2013-08-08 01:02:00,71.0,67.0,-100.00,WSW,243,6.0,8.0,85,0.00,,,0.39,,2013-08-08 05:02:00,
2013-08-08 01:11:00,71.0,67.0,-100.00,WSW,243,6.0,8.0,85,0.00,,,0.39,,2013-08-08 05:11:00,
2013-08-08 01:22:00,71.0,67.0,-100.00,WSW,243,6.0,8.0,85,0.00,,,0.39,,2013-08-08 05:22:00,
2013-08-08 01:33:00,70.0,67.0,-100.00,SW,233,2.0,8.0,89,0.00,,,0.39,,2013-08-08 05:33:00,
2013-08-08 01:43:00,70.0,67.0,-100.00,SW,233,2.0,8.0,89,0.00,,,0.39,,2013-08-08 05:43:00,
2013-08-08 02:12:00,70.0,67.0,-100.00,WSW,254,2.0,4.0,89,0.00,,,0.39,,2013-08-08 06:12:00,
2013-08-08 02:32:00,69.0,67.0,-100.00,West,268,1.0,2.0,92,0.00,,,0.39,,2013-08-08 06:32:00,
2013-08-08 02:43:00,70.0,67.0,-100.00,SSE,161,0.0,0.0,91,0.00,,,0.39,,2013-08-08 06:43:00,
2013-08-08 02:52:00,70.0,67.0,-100.00,WSW,251,5.0,8.0,91,0.00,,,0.39,,2013-08-08 06:52:00,
2013-08-08 03:02:00,69.0,67.0,-100.00,South,179,0.0,1.0,93,0.00,,,0.39,,2013-08-08 07:02:00,
2013-08-08 03:12:00,69.0,67.0,-100.00,South,179,0.0,1.0,93,0.00,,,0.39,,2013-08-08 07:12:00,
2013-08-08 03:32:00,69.0,67.0,-100.00,SW,219,0.0,1.0,94,0.00,,,0.39,,2013-08-08 07:32:00,
2013-08-08 03:43:00,69.0,67.0,-100.00,SW,219,0.0,1.0,94,0.00,,,0.39,,2013-08-08 07:43:00,
2013-08-08 03:53:00,69.0,67.0,-100.00,SW,219,1.0,2.0,94,0.00,,,0.39,,2013-08-08 07:53:00,
2013-08-08 04:02:00,69.0,67.0,-100.00,SSW,210,0.0,2.0,95,0.00,,,0.39,,2013-08-08 08:02:00,
2013-08-08 04:11:00,69.0,67.0,-100.00,SSW,210,0.0,2.0,95,0.00,,,0.39,,2013-08-08 08:11:00,
2013-08-08 04:22:00,69.0,67.0,-100.00,SSW,210,0.0,2.0,95,0.00,,,0.39,,2013-08-08 08:22:00,
2013-08-08 04:32:00,69.0,67.0,-100.00,SE,131,0.0,1.0,96,0.00,,,0.39,,2013-08-08 08:32:00,
2013-08-08 04:43:00,69.0,67.0,-100.00,SE,131,0.0,1.0,96,0.00,,,0.39,,2013-08-08 08:43:00,
2013-08-08 04:53:00,69.0,67.0,-100.00,WNW,285,0.0,2.0,96,0.00,,,0.39,,2013-08-08 08:53:00,
2013-08-08 05:02:00,69.0,67.0,-100.00,SW,216,0.0,1.0,95,0.00,,,0.39,,2013-08-08 09:02:00,
2013-08-08 05:12:00,69.0,67.0,-100.00,SW,216,0.0,1.0,95,0.00,,,0.39,,2013-08-08 09:12:00,
2013-08-08 05:22:00,69.0,67.0,-100.00,SW,216,0.0,1.0,95,0.00,,,0.39,,2013-08-08 09:22:00,
2013-08-08 05:32:00,69.0,67.0,-100.00,SW,223,1.0,3.0,94,0.00,,,0.39,,2013-08-08 09:32:00,
2013-08-08 05:43:00,69.0,67.0,-100.00,SW,223,1.0,3.0,94,0.00,,,0.39,,2013-08-08 09:43:00,
2013-08-08 06:01:00,69.0,67.0,-100.00,WSW,239,1.0,2.0,94,0.00,,,0.39,,2013-08-08 10:01:00,
2013-08-08 06:12:00,69.0,67.0,-100.00,WSW,239,1.0,2.0,94,0.00,,,0.39,,2013-08-08 10:12:00,
2013-08-08 06:32:00,70.0,67.0,-100.00,SW,223,1.0,2.0,92,0.00,,,0.39,,2013-08-08 10:32:00,
2013-08-08 06:43:00,70.0,67.0,-100.00,SW,223,1.0,2.0,92,0.00,,,0.39,,2013-08-08 10:43:00,
2013-08-08 07:11:00,69.0,67.0,-100.00,West,261,3.0,5.0,94,0.00,,,0.39,,2013-08-08 11:11:00,
2013-08-08 07:22:00,69.0,67.0,-100.00,West,261,3.0,5.0,94,0.00,,,0.39,,2013-08-08 11:22:00,
2013-08-08 07:43:00,69.0,67.0,-100.00,SSW,198,0.0,1.0,93,0.00,,,0.39,,2013-08-08 11:43:00,
2013-08-08 08:01:00,69.0,67.0,-100.00,WSW,251,1.0,2.0,95,0.00,,,0.39,,2013-08-08 12:01:00,
2013-08-08 08:11:00,69.0,68.0,-100.00,SW,226,2.0,3.0,95,0.00,,,0.39,,2013-08-08 12:11:00,
2013-08-08 08:22:00,69.0,68.0,-100.00,SW,226,2.0,3.0,95,0.00,,,0.39,,2013-08-08 12:22:00,
2013-08-08 08:43:00,70.0,68.0,-100.00,WSW,246,3.0,5.0,94,0.00,,,0.39,,2013-08-08 12:43:00,
2013-08-08 09:00:00,69.0,68.0,-100.00,SSW,203,0.0,2.0,96,0.00,,,0.39,,2013-08-08 13:00:00,
2013-08-08 09:01:00,70.0,68.0,-100.00,SW,217,1.0,2.0,95,0.00,,,0.39,,2013-08-08 13:01:00,
2013-08-08 09:12:00,70.0,68.0,-100.00,SW,217,1.0,2.0,95,0.00,,,0.39,,2013-08-08 13:12:00,
2013-08-08 09:43:00,69.0,68.0,-100.00,SSW,203,0.0,2.0,96,0.00,,,0.39,,2013-08-08 13:43:00,
2013-08-08 09:53:00,69.0,68.0,-100.00,SSW,203,0.0,2.0,96,0.00,,,0.39,,2013-08-08 13:53:00,
2013-08-08 10:22:00,70.0,69.0,-100.00,SE,144,1.0,2.0,96,0.00,,,0.39,,2013-08-08 14:22:00,
2013-08-08 10:32:00,71.0,69.0,-100.00,SW,217,1.0,2.0,95,0.00,,,0.39,,2013-08-08 14:32:00,
2013-08-08 10:43:00,71.0,69.0,-100.00,SW,217,1.0,2.0,95,0.00,,,0.39,,2013-08-08 14:43:00,
2013-08-08 10:53:00,71.0,69.0,-100.00,SW,217,1.0,2.0,95,0.00,,,0.39,,2013-08-08 14:53:00,
2013-08-08 11:02:00,71.0,69.0,-100.00,SSE,152,0.0,1.0,95,0.00,,,0.39,,2013-08-08 15:02:00,
2013-08-08 11:12:00,71.0,69.0,-100.00,SSE,152,0.0,1.0,95,0.00,,,0.39,,2013-08-08 15:12:00,
2013-08-08 11:43:00,71.0,69.0,-100.00,SSW,206,1.0,2.0,95,0.00,,,0.39,,2013-08-08 15:43:00,
2013-08-08 12:11:00,71.0,69.0,-100.00,WSW,237,2.0,3.0,96,0.51,,,0.33,,2013-08-08 16:11:00,
2013-08-08 12:22:00,70.0,69.0,-100.00,SSE,162,0.0,1.0,97,0.28,,,0.38,,2013-08-08 16:22:00,
2013-08-08 12:32:00,71.0,70.0,-100.00,WSW,251,2.0,3.0,98,0.21,,,0.43,,2013-08-08 16:32:00,
2013-08-08 12:42:00,71.0,70.0,-100.00,WSW,251,2.0,3.0,98,0.21,,,0.43,,2013-08-08 16:42:00,
2013-08-08 13:02:00,71.0,70.0,-100.00,SSW,200,0.0,0.0,98,0.03,,,0.44,,2013-08-08 17:02:00,
2013-08-08 13:11:00,70.0,70.0,-100.00,SSW,206,1.0,3.0,98,0.17,,,0.48,,2013-08-08 17:11:00,
2013-08-08 13:43:00,70.0,69.0,-100.00,WSW,254,3.0,5.0,98,0.23,,,0.54,,2013-08-08 17:43:00,
2013-08-08 14:02:00,69.0,69.0,-100.00,West,260,4.0,6.0,98,0.37,,,0.60,,2013-08-08 18:02:00,
2013-08-08 14:11:00,69.0,69.0,-100.00,SW,236,2.0,4.0,98,0.37,,,0.67,,2013-08-08 18:11:00,
2013-08-08 14:43:00,70.0,69.0,-100.00,SSW,208,2.0,3.0,98,0.04,,,0.71,,2013-08-08 18:43:00,
2013-08-08 15:01:00,70.0,69.0,-100.00,SW,232,3.0,5.0,99,0.00,,,0.71,,2013-08-08 19:01:00,
2013-08-08 15:12:00,70.0,70.0,-100.00,SW,234,3.0,6.0,99,0.00,,,0.71,,2013-08-08 19:12:00,
2013-08-08 15:43:00,71.0,70.0,-100.00,SSW,210,5.0,8.0,99,0.00,,,0.70,,2013-08-08 19:43:00,
2013-08-08 15:58:00,72.0,71.0,-100.00,WSW,241,4.0,6.0,99,0.00,,,0.70,,2013-08-08 19:58:00,
2013-08-08 16:11:00,72.0,71.0,-100.00,SW,226,5.0,11.0,98,0.00,,,0.70,,2013-08-08 20:11:00,
2013-08-08 16:42:00,72.0,71.0,-100.00,SW,234,6.0,10.0,97,0.00,,,0.70,,2013-08-08 20:42:00,
2013-08-08 16:53:00,72.0,71.0,-100.00,SW,234,6.0,10.0,97,0.00,,,0.70,,2013-08-08 20:53:00,
2013-08-08 17:01:00,73.0,71.0,-100.00,SW,233,7.0,11.0,94,0.00,,,0.70,,2013-08-08 21:01:00,
2013-08-08 17:14:00,73.0,71.0,-100.00,SW,233,7.0,11.0,94,0.00,,,0.70,,2013-08-08 21:14:00,
2013-08-08 17:34:00,74.0,71.0,-100.00,SSW,210,5.0,8.0,89,0.00,,,0.63,,2013-08-08 21:34:00,
2013-08-08 17:46:00,75.0,71.0,-100.00,SW,229,5.0,9.0,88,0.00,,,0.63,,2013-08-08 21:46:00,
2013-08-08 18:16:00,74.0,70.0,-100.00,SW,230,6.0,10.0,88,0.00,,,0.63,,2013-08-08 22:16:00,
2013-08-08 18:35:00,75.0,71.0,-100.00,SW,234,5.0,8.0,86,0.00,,,0.63,,2013-08-08 22:35:00,
2013-08-08 18:58:00,75.0,70.0,-100.00,SW,222,5.0,8.0,85,0.00,,,0.63,,2013-08-08 22:58:00,
2013-08-08 19:14:00,74.0,70.0,-100.00,WSW,241,6.0,9.0,87,0.00,,,0.63,,2013-08-08 23:14:00,
2013-08-08 19:24:00,74.0,70.0,-100.00,WSW,241,6.0,9.0,87,0.00,,,0.63,,2013-08-08 23:24:00,
2013-08-08 19:50:00,74.0,70.0,-100.00,WSW,243,5.0,9.0,86,0.00,,,0.63,,2013-08-08 23:50:00,
2013-08-08 19:57:00,73.0,70.0,-100.00,SW,230,2.0,3.0,89,0.00,,,0.63,,2013-08-08 23:57:00,
2013-08-08 20:35:00,72.0,70.0,-100.00,SW,230,3.0,6.0,93,0.00,,,0.63,,2013-08-09 00:35:00,
2013-08-08 20:46:00,72.0,70.0,-100.00,SW,230,3.0,6.0,93,0.00,,,0.63,,2013-08-09 00:46:00,
2013-08-08 20:57:00,73.0,70.0,-100.00,WSW,239,5.0,10.0,92,0.00,,,0.63,,2013-08-09 00:57:00,
2013-08-08 21:03:00,73.0,70.0,-100.00,WSW,251,5.0,8.0,90,0.00,,,0.63,,2013-08-09 01:03:00,
2013-08-08 21:16:00,73.0,70.0,-100.00,WSW,251,5.0,8.0,90,0.00,,,0.63,,2013-08-09 01:16:00,
2013-08-08 21:26:00,72.0,70.0,-100.00,SW,229,3.0,5.0,93,0.00,,,0.63,,2013-08-09 01:26:00,
2013-08-08 21:36:00,72.0,70.0,-100.00,SW,229,3.0,5.0,93,0.00,,,0.63,,2013-08-09 01:36:00,
2013-08-08 21:47:00,72.0,70.0,-100.00,SW,229,3.0,5.0,93,0.00,,,0.63,,2013-08-09 01:47:00,
2013-08-08 22:04:00,72.0,69.0,-100.00,SW,236,4.0,6.0,89,0.00,,,0.63,,2013-08-09 02:04:00,
2013-08-08 22:14:00,72.0,69.0,-100.00,SW,236,4.0,6.0,89,0.00,,,0.63,,2013-08-09 02:14:00,
2013-08-08 22:25:00,72.0,69.0,-100.00,SW,236,4.0,6.0,89,0.00,,,0.63,,2013-08-09 02:25:00,
2013-08-08 22:47:00,73.0,69.0,-100.00,WSW,239,5.0,8.0,89,0.00,,,0.63,,2013-08-09 02:47:00,
2013-08-08 23:07:00,73.0,69.0,-100.00,WSW,239,5.0,8.0,89,0.00,,,0.63,,2013-08-09 03:07:00,
2013-08-08 23:15:00,73.0,70.0,-100.00,WSW,248,6.0,9.0,89,0.00,,,0.63,,2013-08-09 03:15:00,
2013-08-08 23:34:00,72.0,70.0,-100.00,WSW,243,4.0,6.0,91,0.00,,,0.63,,2013-08-09 03:34:00,
2013-08-08 23:47:00,72.0,70.0,-100.00,WSW,243,4.0,6.0,91,0.00,,,0.63,,2013-08-09 03:47:00,